Location: Cantaing
(50.1487°N, 3.1675°E)
Time: 19:39:05
(UTC+00:00)

Meteor 2-19 Rocket - Pass Details

Date: 14 January 2026
Orbit: 935 x 959 km, 82.5° (Epoch: 13 February)

Event Time Altitude Azimuth Distance (km) Brightness Sun altitude
Rises 06:32:37 0° 347° (NNW) 3,617 7.2 -10.6°
Reaches altitude 10° 06:35:08 10° 346° (NNW) 2,666 6.5 -10.3°
Maximum altitude 06:41:09 68° 265° (W) 1,008 4.4 -9.4°
Drops below altitude 10° 06:47:08 10° 183° (S) 2,639 7.0 -8.5°
Sets 06:49:36 0° 181° (S) 3,579 7.8 -8.1°
